Location: Crescent
(42.8242°N, 73.7329°W)
Time: 20:38:36
(UTC+00:00)

SR - Pass Details

Date: 18 February 2026
Orbit: 573 x 848 km, 66.7° (Epoch: 6 March)

Event Time Altitude Azimuth Distance (km) Brightness Sun altitude
Rises 11:10:44 0° 269° (W) 2,800 - -7.5°
Exits shadow 11:13:32 - 293° (WNW) 2,090 ? -7.0°
Reaches altitude 10° 11:14:32 10° 305° (NW) 1,942 ? -6.8°
Maximum altitude 11:15:57 11° 324° (NW) 1,872 ? -6.5°
Drops below altitude 10° 11:17:24 10° 343° (NNW) 1,983 ? -6.3°
Sets 11:21:26 0° 18° (NNE) 2,961 ? -5.5°
